Погода в Петровском

Россия / Ярославская область     57°00′49″N   39°15′48″E
темп.,
°C
ветер,
м/с
пор.,
м/с
влажн.,
%
обл.,
%
осадки,
мм/ч
давл.,
гПа
погр.,
м
14 мая, пт
пт1400:00+11ююз31090100 0.0 1017237
03:00+9ююз3795100 0.0 1018134
06:00+10ю36935 0.0 1018169
09:00+15ююв3572100 0.0 1018646
12:00+15ююв248066 0.1 1018205
15:00+18юв357349 0.8 1016858
18:00+18ююв378169 1.4 1014293
21:00+14ююв51291100 2.7 1014347
15 мая, сб
сб1500:00+13юв3997100 2.2 1013231
03:00+13юв3998100 2.4 1012216
06:00+14ююв51296100 0.6 1012341
09:00+19ююв51178100 0.7 1010548
12:00+22ююв6969100 0.3 10101122
15:00+18ю51287100 2.4 1009641
18:00+20ююз59803 2.0 1008825
21:00+15ю411925 2.4 1009246
16 мая, вс
вс1600:00+13ю311945 0.5 1010218
03:00+12ю310976 0.5 1010220
06:00+13ююз410940 0.0 1011356
09:00+17ююз69753 0.0 1012892
12:00+20ююз795626 0.1 10121904
15:00+19юз596673 0.4 10121260
18:00+18юз497120 0.4 1012740
21:00+13юз34916 0.4 101353
17 мая, пн
пн1700:00+12юз239526 0.0 101453
03:00+11юз2295100 0.0 101627
06:00+13ююз118973 0.0 101660
09:00+18ююв3471100 0.0 1016506
12:00+22юв335888 0.0 10151108
15:00+23юв4558100 0.0 10141240
18:00+23вюв377098 0.0 1012531
21:00+18в4118828 0.2 1011221
18 мая, вт
вт1800:00+15юв4108574 0.0 1011178
03:00+14юв4109324 0.0 1010175
06:00+16юв4148391 0.0 1009324
09:00+21ююв613625 0.0 1009630
12:00+24ююв7125324 0.0 1008875
15:00+26юв7125382 0.0 10071575
18:00+23ююв61360100 0.0 1007683
21:00+17ююв41090100 0.4 1008228